Location: Colonia Mina de C?rbuni
(46.1667°N, 22.7167°E)
Time: 06:11:46
(UTC+00:00)

Courier 1B - Pass Details

Date: 01 May 2024
Orbit: 962 x 1208 km, 28.3° (Epoch: 26 May)

Event Time Altitude Azimuth Distance (km) Brightness Sun altitude
Rises 00:24:00 0° 250° (WSW) 4,097 - -23.2°
Reaches altitude 10° 00:28:52 10° 224° (SW) 3,103 - -22.7°
Maximum altitude 00:31:56 13° 200° (SSW) 2,869 - -22.4°
Drops below altitude 10° 00:34:58 10° 176° (S) 3,046 - -22.1°
Exits shadow 00:39:34 - 150° (SSE) 3,924 10.4 -21.7°
Sets 00:39:40 0° 150° (SSE) 3,950 10.4 -21.7°
